Hilo, HI

1:43 AM HST on March 28, 2017 (GMT -1000)
Hilo International

Weather History for PHTO - March, 2014

Change the Weather History Date:

Sunday, March 9, 2014

  Actual Average Record
Temperature  
Mean Temperature 73 °F 72 °F  
Max Temperature 78 °F 79 °F 87 °F (1986)
Min Temperature 68 °F 64 °F 60 °F (1971)
Degree Days  
Heating Degree Days 0 0  
Month to date heating degree days 0 0  
Since 1 July heating degree days 0 0  
Cooling Degree Days 8 7  
Month to date cooling degree days 69 60  
Year to date cooling degree days 527 430  
Growing Degree Days 22 (Base 50)    
Moisture  
Dew Point 70 °F    
Average Humidity 91    
Maximum Humidity 100    
Minimum Humidity 82    
Precipitation  
Precipitation 1.37 in 0.43 in 8.53 in (1991)
Month to date precipitation 2.49 3.69  
Year to date precipitation 10.72 22.51  
Snow  
Snow 0.00 in - - ()
Month to date snowfall 0.0  
Since 1 July snowfall 0.0  
Snow Depth 0.00 in    
Sea Level Pressure  
Sea Level Pressure 30.05 in    
Wind  
Wind Speed 5 mph (NNW)    
Max Wind Speed 14 mph    
Max Gust Speed 17 mph    
Visibility 7 miles    
Events Rain    
T = Trace of Precipitation, MM = Missing Value Source: NWS Daily Summary

Daily Weather History Graph

Daily Weather History Graph

Search for Another Location

Airport or City:

Trip Planner

Search our weather history database for the weather conditions in past years. The results will help you decide how hot, cold, wet, or windy it might be!

Date:

Astronomy

Mar. 09, 2014 Rise Set
Actual Time 6:33 AM HST 6:28 PM HST
Civil Twilight 6:11 AM HST 6:50 PM HST
Nautical Twilight 5:45 AM HST 7:15 PM HST
Astronomical Twilight 5:20 AM HST 7:41 PM HST
Moon 1:02 PM HST (3/9) 1:35 AM HST (3/9)
Length of Visible Light 12h 38m
Length of Day
11h 54m
Waxing Gibbous, 63% of the Moon is Illuminated
Mar 9
Waxing Gibbous
Mar 16
Full
Mar 23
Last Quarter
Mar 30
New
Apr 6
First Quarter

Hourly Weather History & Observations

Time (HST) Temp. Dew Point Humidity Pressure Visibility Wind Dir Wind Speed Gust Speed Precip Events Conditions
12:01 AM 69.1 °F 69.1 °F 100% 30.10 in 1.5 mi WNW 6.9 mph - 0.11 in Rain Heavy Rain
12:08 AM 69.1 °F 69.1 °F 100% 30.09 in 3.0 mi West 5.8 mph - 0.18 in Rain Rain
12:32 AM 69.1 °F 69.1 °F 100% 30.09 in 7.0 mi West 8.1 mph - 0.21 in Rain Light Rain
12:53 AM 69.1 °F 69.1 °F 100% 30.08 in 7.0 mi West 3.5 mph - 0.22 in Rain Light Rain
1:12 AM 69.1 °F 69.1 °F 100% 30.08 in 2.5 mi WNW 4.6 mph - 0.07 in Rain Rain
1:20 AM 69.1 °F 69.1 °F 100% 30.07 in 7.0 mi WNW 3.5 mph - 0.09 in Rain Light Rain
1:27 AM 69.1 °F 69.1 °F 100% 30.07 in 10.0 mi Calm Calm - 0.09 in   Overcast
1:35 AM 69.1 °F 69.1 °F 100% 30.07 in 10.0 mi NW 4.6 mph - 0.10 in   Overcast
1:53 AM 69.1 °F 69.1 °F 100% 30.06 in 10.0 mi Calm Calm - 0.10 in   Overcast
2:53 AM 69.1 °F 69.1 °F 100% 30.04 in 10.0 mi SW 5.8 mph - 0.02 in   Overcast
3:41 AM 69.1 °F 69.1 °F 100% 30.05 in 10.0 mi Calm Calm - N/A   Overcast
3:53 AM 69.1 °F 69.1 °F 100% 30.04 in 6.0 mi ENE 4.6 mph - 0.00 in Rain Rain
4:09 AM 69.1 °F 69.1 °F 100% 30.04 in 2.5 mi SW 3.5 mph - 0.11 in Rain Heavy Rain
4:12 AM 69.1 °F 69.1 °F 100% 30.04 in 3.0 mi WSW 4.6 mph - 0.12 in Rain Heavy Rain
4:47 AM 69.8 °F 69.8 °F 100% 30.04 in 2.5 mi WNW 3.5 mph - 0.17 in Rain Heavy Rain
4:53 AM 69.1 °F 69.1 °F 100% 30.04 in 1.8 mi Calm Calm - 0.23 in Rain Heavy Rain
5:16 AM 69.1 °F 69.1 °F 100% 30.05 in 2.5 mi WSW 6.9 mph - 0.35 in Rain Rain
5:23 AM 69.1 °F 69.1 °F 100% 30.05 in 5.0 mi West 3.5 mph - 0.37 in Rain Light Rain
5:27 AM 69.1 °F 69.1 °F 100% 30.05 in 5.0 mi Calm Calm - 0.37 in Rain Light Rain
5:34 AM 69.1 °F 69.1 °F 100% 30.06 in 3.0 mi Calm Calm - 0.39 in Rain Heavy Rain
5:39 AM 69.1 °F 69.1 °F 100% 30.05 in 2.5 mi Calm Calm - 0.44 in Rain Heavy Rain
5:49 AM 69.8 °F 69.8 °F 100% 30.05 in 4.0 mi West 5.8 mph - 0.51 in Rain Rain
5:53 AM 69.1 °F 69.1 °F 100% 30.05 in 4.0 mi West 6.9 mph - 0.52 in Rain Rain
6:21 AM 68.0 °F 68.0 °F 100% 30.06 in 4.0 mi West 8.1 mph - 0.06 in Rain Rain
6:43 AM 68.0 °F 68.0 °F 100% 30.07 in 10.0 mi West 9.2 mph - 0.09 in Rain Light Rain
6:53 AM 68.0 °F 68.0 °F 100% 30.06 in 10.0 mi WSW 6.9 mph - 0.09 in   Overcast
7:16 AM 69.1 °F 68.0 °F 96% 30.08 in 10.0 mi SE 4.6 mph - 0.01 in   Overcast
7:53 AM 69.1 °F 69.1 °F 100% 30.08 in 6.0 mi WSW 5.8 mph - 0.04 in Rain Light Rain
8:06 AM 69.1 °F 69.1 °F 100% 30.09 in 6.0 mi WSW 5.8 mph - 0.01 in Rain Light Rain
8:53 AM 71.1 °F 70.0 °F 96% 30.09 in 5.0 mi SW 6.9 mph - 0.05 in Rain Light Rain
9:53 AM 73.9 °F 70.0 °F 87% 30.09 in 10.0 mi NW 3.5 mph - 0.00 in   Mostly Cloudy
10:36 AM 75.0 °F 69.1 °F 82% 30.10 in 10.0 mi NNE 3.5 mph - N/A   Overcast
10:51 AM 75.2 °F 69.8 °F 83% 30.10 in 10.0 mi North 3.5 mph - N/A   Mostly Cloudy
10:53 AM 75.9 °F 71.1 °F 85% 30.09 in 10.0 mi North 3.5 mph - N/A   Mostly Cloudy
11:53 AM 75.9 °F 69.1 °F 79% 30.06 in 10.0 mi NNW 5.8 mph - N/A   Mostly Cloudy
12:36 PM 72.0 °F 71.1 °F 97% 30.06 in 2.5 mi SE 10.4 mph - 0.07 in Rain Heavy Rain
12:53 PM 72.0 °F 71.1 °F 97% 30.04 in 2.0 mi SSE 6.9 mph - 0.17 in Rain Light Rain
1:00 PM 72.0 °F 71.1 °F 97% 30.04 in 5.0 mi SSE 4.6 mph - 0.01 in Rain Light Rain
1:07 PM 73.0 °F 71.1 °F 93% 30.04 in 10.0 mi Variable 3.5 mph - 0.01 in Rain Light Rain
1:53 PM 75.9 °F 72.0 °F 87% 30.01 in 10.0 mi ENE 6.9 mph - 0.01 in   Mostly Cloudy
2:53 PM 75.9 °F 71.1 °F 85% 29.99 in 10.0 mi East 9.2 mph - N/A   Mostly Cloudy
3:53 PM 75.0 °F 71.1 °F 87% 29.99 in 10.0 mi SE 10.4 mph - 0.00 in   Mostly Cloudy
4:00 PM 73.0 °F 71.1 °F 93% 29.99 in 9.0 mi ESE 11.5 mph - 0.00 in Rain Light Rain
4:30 PM 73.0 °F 72.0 °F 96% 30.00 in 10.0 mi ESE 10.4 mph - 0.02 in Rain Light Rain
4:53 PM 73.0 °F 71.1 °F 93% 30.00 in 8.0 mi East 6.9 mph - 0.04 in Rain Light Rain
5:24 PM 73.0 °F 71.1 °F 93% 30.01 in 5.0 mi NE 12.7 mph - 0.00 in Rain Light Rain
5:53 PM 73.0 °F 71.1 °F 93% 30.01 in 10.0 mi East 12.7 mph - 0.01 in   Overcast
6:00 PM 73.0 °F 70.0 °F 90% 30.02 in 10.0 mi East 10.4 mph - N/A   Overcast
6:53 PM 73.0 °F 70.0 °F 90% 30.03 in 10.0 mi ENE 10.4 mph - N/A   Overcast
7:16 PM 73.9 °F 71.1 °F 91% 30.04 in 10.0 mi ENE 8.1 mph - N/A   Overcast
7:41 PM 73.0 °F 70.0 °F 90% 30.05 in 10.0 mi ENE 11.5 mph - N/A   Overcast
7:53 PM 73.0 °F 70.0 °F 90% 30.05 in 10.0 mi ENE 10.4 mph - N/A   Overcast
8:53 PM 73.0 °F 70.0 °F 90% 30.08 in 10.0 mi East 8.1 mph - N/A   Overcast
9:53 PM 73.0 °F 70.0 °F 90% 30.09 in 10.0 mi East 9.2 mph - N/A   Overcast
10:53 PM 73.0 °F 70.0 °F 90% 30.08 in 10.0 mi East 10.4 mph - N/A   Overcast
11:53 PM 72.0 °F 69.1 °F 91% 30.08 in 10.0 mi East 8.1 mph - N/A   Overcast